����26�N�x�@��C��������Ԃɂ�鑪�茋��,,,,,,,,,,,,,,
,,,,,,,,,,,,,,
�P�@����n�_,,,,,,,,,,,,,,
���C�s�V��i���C�s�V��1-1�j,,,,,,,,,,,,,,
,,,,,,,,,,,,,,
�Q�@���Ԓl�i�m��l�j������26�N9��4���`����26�N9��26��,,,,,,,,,,,,,,
,,,,,,,,,,,,,,
,�N,��,��,��,SO2,SPM,Ox,CO,NO,NO2,���x,���x,����,����
,,,,,ppm,mg/m3,ppm,ppm,ppm,ppm,��,%,�P�U����,m/s
H01,2014,9,4,1,***,0.014,0.034,***,***,***,25.5,68.2,SSE,0.9
H01,2014,9,4,2,***,0.021,0.031,0.2,***,***,24.9,71.7,SE,1.2
H01,2014,9,4,3,0,0.034,0.035,0.2,0,0.012,24.6,73.1,ESE,0.5
H01,2014,9,4,4,0,0.027,0.027,0.2,0.001,0.018,23.6,82,CALM,0.2
H01,2014,9,4,5,0,0.024,0.019,0.2,0.003,0.026,24,81.1,ENE,0.6
H01,2014,9,4,6,0,0.03,0.022,0.2,0.001,0.019,24.2,80.3,E,0.7
H01,2014,9,4,7,0,0.018,0.016,0.2,0.003,0.025,24.4,79.6,ENE,0.5
H01,2014,9,4,8,0,0.032,0.011,0.3,0.011,0.034,25.1,75.4,SSE,1.1
H01,2014,9,4,9,0.001,0.036,0.03,0.2,0.003,0.02,25.6,71.5,ESE,1
H01,2014,9,4,10,0.001,0.032,0.025,0.2,0.011,0.027,24.9,77.5,NNW,0.5
H01,2014,9,4,11,0,0.039,0.02,0.3,0.025,0.036,23.9,87.2,NE,1.4
H01,2014,9,4,12,0,0.048,0.015,0.3,0.019,0.042,23.7,89.6,NE,1.9
H01,2014,9,4,13,0,0.044,0.021,0.3,0.014,0.034,23.9,92,CALM,0
H01,2014,9,4,14,0,0.039,0.014,0.4,0.016,0.042,23.5,92.8,ENE,0.6
H01,2014,9,4,15,0,0.045,0.025,0.3,0.004,0.027,23.5,92.1,ENE,0.3
H01,2014,9,4,16,0,0.06,0.024,0.3,0.002,0.027,23.9,92.2,ENE,0.6
H01,2014,9,4,17,0,0.046,0.02,0.3,0.002,0.029,23.7,92.6,NE,0.8
H01,2014,9,4,18,0,0.043,0.015,0.4,0.007,0.035,23.8,93.9,NNE,0.3
H01,2014,9,4,19,0,0.04,0.011,0.4,0.007,0.037,23.7,94.5,CALM,0.2
H01,2014,9,4,20,0,0.027,0.018,0.3,0.001,0.024,23.6,94.7,CALM,0.2
H01,2014,9,4,21,0,0.029,0.018,0.3,0.002,0.022,23.4,95,SE,0.8
H01,2014,9,4,22,0,0.018,0.018,0.2,0.001,0.021,23.5,95.2,CALM,0
H01,2014,9,4,23,0,0.019,0.019,0.2,0.001,0.019,23.3,95.2,SE,0.4
H01,2014,9,4,24,0,0.024,0.021,0.2,0,0.019,23.3,95.3,ESE,0.6
H01,2014,9,5,1,0,0.023,0.023,0.2,0,0.014,23.5,95.5,ESE,0.9
H01,2014,9,5,2,0,0.014,0.021,0.1,0,0.016,23.6,95.5,SE,1
H01,2014,9,5,3,0,0.029,0.012,0.2,0.011,0.023,23.8,95.5,SSE,0.8
H01,2014,9,5,4,0,0.04,0.013,0.2,0.001,0.022,23.8,95.5,ESE,0.4
H01,2014,9,5,5,0,0.031,0.013,0.1,0.001,0.021,24.2,95.6,E,0.4
H01,2014,9,5,6,0,0.031,0.011,0.1,0.001,0.018,24.3,95.5,CALM,0.2
H01,2014,9,5,7,0,0.025,0.006,0.2,0.006,0.023,24.8,95.7,ESE,0.6
H01,2014,9,5,8,0,0.029,0.007,0.2,0.015,0.02,26.1,92.8,SSE,1
H01,2014,9,5,9,0,0.032,0.005,0.2,0.017,0.017,25.8,90.1,SSW,0.9
H01,2014,9,5,10,0.001,0.055,0.003,0.3,0.054,0.023,27.3,86.7,SSE,0.8
H01,2014,9,5,11,0.001,0.045,0.006,0.2,0.031,0.018,27.6,81.9,WNW,1.2
H01,2014,9,5,12,0.004,0.05,0.002,0.4,0.086,0.03,28.1,79.2,SE,0.4
H01,2014,9,5,13,0.003,0.039,0.006,0.3,0.032,0.021,29.9,71.8,SSW,0.7
H01,2014,9,5,14,0.006,0.053,0.006,0.5,0.061,0.04,30.3,67.5,W,1.6
H01,2014,9,5,15,0.005,0.033,0.008,0.2,0.044,0.033,29.9,69.8,WNW,1.3
H01,2014,9,5,16,0.004,0.048,0.007,0.3,0.045,0.031,28.8,77.2,NNW,0.3
H01,2014,9,5,17,0.002,0.032,0.011,0.3,0.03,0.041,29.1,73.1,WNW,0.9
H01,2014,9,5,18,0.002,0.072,0.007,0.4,0.035,0.043,28.1,83.1,WNW,1.2
H01,2014,9,5,19,0.001,0.061,0.005,0.4,0.026,0.042,27.6,84.8,WNW,1.1
H01,2014,9,5,20,0.001,0.056,0.008,0.3,0.009,0.033,27.2,86.1,CALM,0
H01,2014,9,5,21,0.001,0.066,0.003,0.4,0.012,0.036,27,86.7,NW,0.6
H01,2014,9,5,22,0.001,0.057,0.001,0.5,0.017,0.038,27,86.4,WNW,0.7
H01,2014,9,5,23,0.001,0.07,0.001,0.5,0.014,0.035,26.5,88.2,WNW,0.9
H01,2014,9,5,24,0.001,0.079,0.002,0.5,0.013,0.032,26.1,90.3,WNW,0.7
H01,2014,9,6,1,0.001,0.059,0.001,0.4,0.012,0.028,25.7,90.6,NW,1.2
H01,2014,9,6,2,0.001,0.059,0.001,0.4,0.014,0.022,25.2,91,WNW,0.6
H01,2014,9,6,3,0.001,0.055,0.001,0.4,0.018,0.02,25.1,92.5,WNW,0.5
H01,2014,9,6,4,0.001,0.057,0.001,0.4,0.023,0.018,25.3,92.6,WNW,1.5
H01,2014,9,6,5,0.001,0.053,0,0.4,0.023,0.016,25.1,91.3,WNW,0.9
H01,2014,9,6,6,0.001,0.051,0.001,0.4,0.025,0.015,24.6,90.1,WNW,0.9
H01,2014,9,6,7,0.001,0.046,0.001,0.4,0.042,0.015,25.5,84.4,NNE,0.5
H01,2014,9,6,8,0.001,0.049,0.003,0.4,0.047,0.018,27.6,69.6,NNE,0.8
H01,2014,9,6,9,0.001,0.037,0.008,0.3,0.031,0.016,29.4,64.8,NW,1.3
H01,2014,9,6,10,0.001,0.032,0.014,0.4,0.023,0.018,30.3,60.6,NW,1.2
H01,2014,9,6,11,0.001,0.055,0.025,0.3,0.014,0.021,31.5,51.9,NW,1.3
H01,2014,9,6,12,0.001,0.042,0.043,0.3,0.009,0.015,32.4,48.4,WNW,1.4
H01,2014,9,6,13,0.002,0.044,0.059,0.3,0.004,0.012,33,40.2,WNW,1.1
H01,2014,9,6,14,0.002,0.047,0.055,0.3,0.005,0.013,33.6,42.7,NW,1.1
H01,2014,9,6,15,0.002,0.056,0.051,0.3,0.005,0.019,34.7,42.5,NW,1.1
H01,2014,9,6,16,0.002,0.05,0.046,0.3,0.005,0.016,34.4,43.7,W,1.1
H01,2014,9,6,17,0.005,0.056,0.032,0.8,0.013,0.039,31.7,56.8,SW,1.6
H01,2014,9,6,18,0.003,0.108,0.033,0.5,0.004,0.026,27.4,84.9,WSW,2.7
H01,2014,9,6,19,0.002,0.035,0.035,0.4,0.004,0.017,23.6,88.5,W,0.8
H01,2014,9,6,20,0.001,0.04,0.042,0.4,0.001,0.015,22.6,91.7,WNW,1.3
H01,2014,9,6,21,0.001,0.036,0.053,0.3,0,0.007,21,93,NE,1.7
H01,2014,9,6,22,0,0.026,0.051,0.3,0,0.008,21.4,94.4,N,0.4
H01,2014,9,6,23,0,0.03,0.045,0.3,0,0.011,21.3,94.5,NE,1.1
H01,2014,9,6,24,0,0.041,0.042,0.3,0,0.012,21.6,94.4,WNW,1.7
H01,2014,9,7,1,0.001,0.032,0.04,0.3,0,0.011,21.6,92.7,WNW,1.3
H01,2014,9,7,2,0.001,0.031,0.041,0.3,0,0.01,21.6,91.3,N,0.8
H01,2014,9,7,3,0.001,0.042,0.036,0.3,0,0.01,21.9,91.8,CALM,0.2
H01,2014,9,7,4,0.001,0.043,0.038,0.3,0,0.01,21.5,92.7,NE,0.3
H01,2014,9,7,5,0.001,0.033,0.03,0.4,0,0.015,21.5,93.7,CALM,0.2
H01,2014,9,7,6,0,0.037,0.025,0.4,0,0.016,22,94.2,CALM,0
H01,2014,9,7,7,0.001,0.039,0.022,0.4,0.002,0.021,22.2,92.9,NW,0.7
H01,2014,9,7,8,0.001,0.036,0.02,0.4,0.005,0.022,22.9,89.9,NW,0.5
H01,2014,9,7,9,0.003,0.033,0.02,0.4,0.012,0.028,25,81.2,W,1.2
H01,2014,9,7,10,0.002,0.043,0.037,0.3,0.004,0.012,27.2,64.5,WNW,1.5
H01,2014,9,7,11,0.002,0.024,0.045,0.3,0.002,0.01,28.5,60.2,W,1.4
H01,2014,9,7,12,0.003,0.04,0.048,0.6,0.004,0.015,29.6,57.1,W,1.7
H01,2014,9,7,13,0.004,0.035,0.054,0.5,0.005,0.019,30.3,52.6,W,1.7
H01,2014,9,7,14,0.002,0.039,0.059,0.4,0.003,0.017,31.2,52.3,W,2.3
H01,2014,9,7,15,0.002,0.034,0.059,0.5,0.005,0.022,31.5,50.6,WSW,2
H01,2014,9,7,16,0.004,0.034,0.05,0.8,0.006,0.03,31.8,48.1,W,2.3
H01,2014,9,7,17,0.003,0.036,0.052,0.7,0.003,0.021,31.5,47.8,W,2
H01,2014,9,7,18,0.003,0.026,0.041,0.6,0.003,0.02,29.7,56.1,WSW,1.2
H01,2014,9,7,19,0.003,0.029,0.027,0.6,0.004,0.023,28.5,58.3,WSW,1.2
H01,2014,9,7,20,0.002,0.041,0.028,0.4,0.001,0.018,27,72.5,SE,1.8
H01,2014,9,7,21,0.001,0.04,0.022,0.2,0,0.012,25.7,82.3,SE,1.3
H01,2014,9,7,22,0.001,0.028,0.022,0.1,0,0.007,25.1,84.5,ESE,0.8
H01,2014,9,7,23,0.001,0.038,0.02,0.1,0,0.008,24.9,86.5,ESE,0.6
H01,2014,9,7,24,0.001,0.029,0.021,0.2,0,0.007,24.5,87.4,CALM,0.1
H01,2014,9,8,1,0.001,0.027,0.025,0.2,0,0.008,24.3,87.9,SE,0.4
H01,2014,9,8,2,0.001,0.037,0.024,0.2,0,0.012,24.5,86.6,SSE,1
H01,2014,9,8,3,0.001,0.038,0.023,0.2,0.001,0.012,24.5,86.4,SSE,1.1
H01,2014,9,8,4,0.001,0.027,0.014,0.3,0.004,0.021,24.2,79.3,CALM,0.2
H01,2014,9,8,5,0.001,0.033,0.011,0.3,0.007,0.022,24.1,80.5,NW,0.5
H01,2014,9,8,6,0.001,0.04,0.005,0.3,0.011,0.027,23.9,86,CALM,0
H01,2014,9,8,7,0.002,0.033,0.004,0.4,0.045,0.028,24.2,77.3,WNW,1.3
H01,2014,9,8,8,0.002,0.042,0.002,0.5,0.058,0.029,25,76.1,N,0.5
H01,2014,9,8,9,0.001,0.047,0.007,0.4,0.021,0.027,25.5,74,SSE,0.4
H01,2014,9,8,10,0.001,0.027,0.009,0.4,0.022,0.029,25.9,71.6,S,0.9
H01,2014,9,8,11,0.001,0.026,0.027,0.3,0.005,0.016,26.7,65.7,SSE,2.3
H01,2014,9,8,12,0.001,0.036,0.033,0.3,0.004,0.014,27.3,57.2,S,1.8
H01,2014,9,8,13,0.001,0.019,0.038,0.2,0.004,0.015,27.6,55.3,S,2
H01,2014,9,8,14,0.001,0.025,0.039,0.2,0.004,0.013,27.6,53,SSE,2.5
H01,2014,9,8,15,0.001,0.028,0.043,0.3,0.003,0.012,28.1,49.8,S,2.8
H01,2014,9,8,16,0.001,0.014,0.045,0.3,0.003,0.012,27.6,43.9,SSW,1.7
H01,2014,9,8,17,0.001,0.019,0.042,0.3,0.005,0.017,27.2,44.4,SW,1.6
H01,2014,9,8,18,0.001,0.019,0.032,0.4,0.005,0.027,25,58.4,SSW,2.2
H01,2014,9,8,19,0.002,0.032,0.029,0.3,0.003,0.027,23.7,64,SW,1.4
H01,2014,9,8,20,0.002,0.034,0.027,0.3,0.002,0.028,22.9,67.4,SSW,1.2
H01,2014,9,8,21,0.001,0.021,0.035,0.2,0.001,0.02,22.5,69.2,SSW,1.7
H01,2014,9,8,22,0.004,0.026,0.026,0.6,0.003,0.029,22.8,70.2,SSW,1.8
H01,2014,9,8,23,0.002,0.02,0.036,0.2,0,0.017,22.1,75,E,0.3
H01,2014,9,8,24,0.002,0.017,0.033,0.2,0.001,0.019,22.7,76.1,NW,1.8
H01,2014,9,9,1,0.001,0.036,0.033,0.2,0.001,0.016,22.9,69.3,NW,1.2
H01,2014,9,9,2,0.001,0.026,0.028,0.3,0.001,0.018,22.2,77.6,WNW,1
H01,2014,9,9,3,0.002,0.033,0.009,0.3,0.005,0.025,21.8,83,CALM,0.1
H01,2014,9,9,4,0.002,0.034,0.007,0.4,0.008,0.033,22,83.6,NW,0.4
H01,2014,9,9,5,0.001,0.044,0.013,0.3,0.005,0.029,22,79.7,NE,1.9
H01,2014,9,9,6,0.001,0.04,0.01,0.4,0.01,0.034,22.3,79.3,NE,0.8
H01,2014,9,9,7,0.002,0.041,0.012,0.4,0.019,0.033,23.8,71.2,NNE,1.1
H01,2014,9,9,8,0.002,0.036,0.017,0.4,0.021,0.034,25.4,54.8,N,0.8
H01,2014,9,9,9,0.001,0.041,0.026,0.4,0.016,0.025,27,49.8,NNE,1.4
H01,2014,9,9,10,0.001,0.034,0.028,0.3,0.021,0.031,28.2,45.6,NNE,1
H01,2014,9,9,11,0.001,0.025,0.04,0.3,0.012,0.022,29.8,39.3,WNW,2
H01,2014,9,9,12,0.001,0.028,0.042,0.3,0.015,0.025,30.6,37.4,WNW,1.7
H01,2014,9,9,13,0.001,0.025,0.048,0.3,0.008,0.015,31.8,35.2,WNW,1.8
H01,2014,9,9,14,0.001,0.028,0.042,0.3,0.014,0.021,32.5,36.8,WNW,2.5
H01,2014,9,9,15,0.001,0.026,0.041,0.2,0.011,0.02,32.1,35.8,WNW,1.9
H01,2014,9,9,16,0.001,0.034,0.041,0.2,0.014,0.017,32,36.5,WNW,2.9
H01,2014,9,9,17,0.001,0.035,0.037,0.4,0.009,0.021,30.6,44,WNW,2.7
H01,2014,9,9,18,0.002,0.034,0.024,0.5,0.016,0.03,28.8,48.4,WNW,1.9
H01,2014,9,9,19,0.001,0.032,0.035,0.4,0.006,0.014,28.1,47.9,WNW,2.4
H01,2014,9,9,20,0.001,0.035,0.033,0.3,0.003,0.013,26.9,53.2,WNW,1.9
H01,2014,9,9,21,0.001,0.03,0.031,0.3,0.001,0.014,26,57,WNW,1
H01,2014,9,9,22,0.001,0.022,0.03,0.3,0,0.012,25.8,58.5,NE,0.8
H01,2014,9,9,23,0.001,0.031,0.027,0.3,0.001,0.014,25.5,60.4,NW,0.8
H01,2014,9,9,24,0.001,0.035,0.025,0.3,0.001,0.014,25,63.8,NE,0.4
H01,2014,9,10,1,0.001,0.043,0.021,0.3,0.001,0.019,24.2,65.5,CALM,0.1
H01,2014,9,10,2,0.002,0.035,0.013,0.3,0.007,0.025,24,67.1,NW,0.6
H01,2014,9,10,3,0.003,0.029,0.007,0.3,0.009,0.028,23.9,71.8,NNE,0.6
H01,2014,9,10,4,0.001,0.035,0.003,0.4,0.007,0.031,22.9,77.3,CALM,0.2
H01,2014,9,10,5,0.001,0.032,0.001,0.4,0.009,0.03,22.7,81,CALM,0.1
H01,2014,9,10,6,0.001,0.046,0.001,0.4,0.025,0.031,22,83.2,CALM,0
H01,2014,9,10,7,0.001,0.038,0.004,0.5,0.024,0.027,23.9,74.4,NE,0.7
H01,2014,9,10,8,0.001,0.047,0.017,0.4,0.008,0.019,25.7,65,E,0.7
H01,2014,9,10,9,0.001,0.053,0.03,0.4,0.004,0.014,27.2,53.6,NE,0.6
H01,2014,9,10,10,0.002,0.053,0.041,0.4,0.004,0.016,29.6,52.1,SE,0.9
H01,2014,9,10,11,0.004,0.061,0.025,0.8,0.033,0.05,29.7,51,WNW,1.1
H01,2014,9,10,12,0.008,0.075,0.029,1.5,0.034,0.058,29.8,47.4,S,0.7
H01,2014,9,10,13,0.009,0.089,0.046,0.9,0.016,0.051,29.9,52.3,NW,2.1
H01,2014,9,10,14,0.01,0.084,0.042,1.1,0.022,0.063,31.2,49.2,W,2.7
H01,2014,9,10,15,0.007,0.073,0.05,0.8,0.017,0.046,31.4,50.2,SSW,1.8
H01,2014,9,10,16,0.006,0.067,0.044,0.7,0.009,0.046,30.3,50.5,SW,1.1
H01,2014,9,10,17,0.003,0.045,0.039,0.4,0.009,0.038,29.1,55,SW,1.9
H01,2014,9,10,18,0.003,0.047,0.043,0.4,0.003,0.026,27.9,64.2,S,1.6
H01,2014,9,10,19,0.003,0.048,0.043,0.3,0,0.019,27.2,71.7,S,1.3
H01,2014,9,10,20,0.002,0.047,0.041,0.3,0,0.018,26.6,74.5,S,1.6
H01,2014,9,10,21,0.001,0.045,0.042,0.3,0,0.021,26.4,77.6,SSE,1.7
H01,2014,9,10,22,0.001,0.035,0.038,0.3,0,0.015,25.2,69,ENE,0.7
H01,2014,9,10,23,0.001,0.041,0.036,0.3,0,0.012,24.8,65,E,0.7
H01,2014,9,10,24,0.001,0.038,0.034,0.3,0,0.012,24.7,67.8,ENE,1.4
H01,2014,9,11,1,***,0.039,0.036,***,***,***,24,70.5,E,0.3
H01,2014,9,11,2,***,0.038,0.028,0.3,***,***,24.3,74.9,WNW,1.3
H01,2014,9,11,3,0.001,0.044,0.035,0.3,0.002,0.016,21.6,87.2,CALM,0.2
H01,2014,9,11,4,0.001,0.039,0.03,0.3,0.002,0.021,21.9,89.8,E,0.5
H01,2014,9,11,5,0.001,0.04,0.024,0.3,0.001,0.018,22.1,86.4,NE,1.7
H01,2014,9,11,6,0.001,0.057,0.011,0.3,0.01,0.03,21.6,86.1,CALM,0.2
H01,2014,9,11,7,0.001,0.045,0.007,0.4,0.019,0.034,22.8,84.1,ESE,0.3
H01,2014,9,11,8,0.001,0.045,0.01,0.4,0.01,0.028,23.1,81.7,S,0.7
H01,2014,9,11,9,0.001,0.051,0.019,0.4,0.014,0.025,24.2,73.4,S,1.7
H01,2014,9,11,10,0.001,0.028,0.042,0.2,0.007,0.014,26.1,64.5,SSE,2.5
H01,2014,9,11,11,0.001,0.035,0.047,0.2,0.003,0.014,27.3,61.1,S,1.5
H01,2014,9,11,12,0.001,0.032,0.053,0.2,0.003,0.013,27,58.1,S,1.4
H01,2014,9,11,13,0.008,0.051,0.024,0.6,0.025,0.046,26.4,64.1,WNW,2
H01,2014,9,11,14,0.008,0.064,0.019,1,0.037,0.057,26.6,64.9,WSW,1.6
H01,2014,9,11,15,0.006,0.057,0.017,0.7,0.044,0.061,26.4,70.8,WSW,1.7
H01,2014,9,11,16,0.006,0.052,0.029,0.8,0.024,0.045,26.7,60.7,SSW,2.1
H01,2014,9,11,17,0.006,0.058,0.022,0.8,0.028,0.054,27,61.3,WSW,1.4
H01,2014,9,11,18,0.007,0.061,0.023,0.6,0.017,0.057,25.8,66.3,SW,1.1
H01,2014,9,11,19,0.003,0.054,0.037,0.3,0.003,0.031,24.4,77.1,E,0.4
H01,2014,9,11,20,0.002,0.024,0.039,0.3,0.001,0.021,23.4,66.4,E,0.3
H01,2014,9,11,21,0.001,0.048,0.036,0.3,0.001,0.017,23.8,61.1,N,0.9
H01,2014,9,11,22,0.001,0.021,0.034,0.2,0.001,0.011,23.1,61.8,NE,0.9
H01,2014,9,11,23,0.001,0.027,0.031,0.3,0.001,0.013,22.6,61.4,NE,1.8
H01,2014,9,11,24,0.001,0.022,0.027,0.3,0.001,0.015,22.2,63.9,N,0.7
H01,2014,9,12,1,0.001,0.029,0.028,0.2,0.001,0.015,21.9,63.5,NE,1.3
H01,2014,9,12,2,0.001,0.028,0.027,0.2,0.001,0.015,21.4,65.8,NNE,1.1
H01,2014,9,12,3,0.001,0.02,0.025,0.2,0.002,0.017,21,67.8,NE,0.8
H01,2014,9,12,4,0.001,0.027,0.023,0.3,0.002,0.018,20.8,66.2,NE,1.5
H01,2014,9,12,5,0.001,0.03,0.016,0.3,0.005,0.025,20.3,69.7,NE,0.8
H01,2014,9,12,6,0.001,0.031,0.01,0.3,0.01,0.029,20.4,68.2,NE,1.3
H01,2014,9,12,7,0.001,0.017,0.012,0.3,0.014,0.027,21.9,62.9,NE,2.1
H01,2014,9,12,8,0.001,0.031,0.018,0.3,0.016,0.024,23.7,51.9,NE,2.9
H01,2014,9,12,9,0.001,0.038,0.022,0.3,0.019,0.023,25,44.7,NW,1
H01,2014,9,12,10,0.001,0.014,0.025,0.3,0.024,0.032,26.4,37.4,WNW,1.6
H01,2014,9,12,11,0.001,0.02,0.034,0.3,0.019,0.023,27.2,35.8,WNW,2.3
H01,2014,9,12,12,0.001,0.028,0.038,0.2,0.015,0.021,28.1,33.9,NW,1.9
H01,2014,9,12,13,0.001,0.018,0.046,0.3,0.009,0.014,28.3,30.5,WNW,2.4
H01,2014,9,12,14,0.001,0.017,0.042,0.2,0.015,0.021,29.3,32.4,WNW,2.2
H01,2014,9,12,15,0.001,0.025,0.035,0.2,0.018,0.022,28.7,33.5,WNW,2.4
H01,2014,9,12,16,0.002,0.026,0.035,0.3,0.018,0.025,27.6,38.3,WNW,3.2
H01,2014,9,12,17,0.002,0.036,0.031,0.3,0.01,0.024,26.2,44.4,WNW,2.2
H01,2014,9,12,18,0.002,0.029,0.023,0.3,0.013,0.028,25.1,47.3,WNW,1.9
H01,2014,9,12,19,0.002,0.036,0.022,0.3,0.011,0.026,24.5,48,WNW,2.1
H01,2014,9,12,20,0.001,0.017,0.033,0.3,0.003,0.011,24,49.4,W,1.9
H01,2014,9,12,21,0.001,0.014,0.032,0.3,0.002,0.01,23.7,49.8,NW,1.4
H01,2014,9,12,22,0.001,0.015,0.031,0.2,0.001,0.01,23.2,51.2,NW,0.6
H01,2014,9,12,23,0.001,0.016,0.028,0.2,0.002,0.011,22.9,50.7,WNW,1
H01,2014,9,12,24,0.001,0.017,0.027,0.2,0.001,0.012,22.8,49.9,NNW,0.9
H01,2014,9,13,1,0.001,0.015,0.027,0.2,0.001,0.013,22.5,49.5,N,0.5
H01,2014,9,13,2,0.001,0.019,0.028,0.2,0.001,0.01,22,53.3,NE,0.7
H01,2014,9,13,3,0.002,0.013,0.024,0.2,0.001,0.012,21.5,57,NE,0.8
H01,2014,9,13,4,0.002,0.038,0.022,0.2,0.001,0.014,21.3,57.1,ENE,1.5
H01,2014,9,13,5,0.001,0.017,0.019,0.2,0.002,0.017,20.9,59.1,NE,1.6
H01,2014,9,13,6,0.001,0.028,0.013,0.2,0.006,0.024,20.9,63,NE,0.7
H01,2014,9,13,7,0.001,0.017,0.014,0.2,0.012,0.024,22.3,56.8,NNE,1
H01,2014,9,13,8,0.001,0.034,0.018,0.2,0.014,0.02,24.3,49,NNE,1.4
H01,2014,9,13,9,0.001,0.022,0.023,0.2,0.011,0.018,25.4,43.8,N,1.3
H01,2014,9,13,10,0.001,0.022,0.029,0.2,0.011,0.016,26.7,35.5,WNW,2.1
H01,2014,9,13,11,0,0.022,0.033,0.2,0.011,0.015,27.2,36.8,WNW,3
H01,2014,9,13,12,0.001,0.014,0.037,0.2,0.008,0.013,27.9,35.1,WNW,1.9
H01,2014,9,13,13,0.001,0.024,0.04,0.2,0.006,0.012,28.8,34.7,WNW,3.1
H01,2014,9,13,14,0,0.018,0.037,0.2,0.01,0.01,29.8,34.5,WNW,2.1
H01,2014,9,13,15,0.001,0.024,0.036,0.2,0.009,0.014,29.6,34.1,WNW,2.1
H01,2014,9,13,16,0.001,0.014,0.035,0.2,0.008,0.011,29.1,34.8,WNW,2.8
H01,2014,9,13,17,0.001,0.019,0.031,0.2,0.007,0.011,28.2,38.1,WNW,2.8
H01,2014,9,13,18,0,0.014,0.032,0.2,0.004,0.008,26.5,44.4,WNW,3
H01,2014,9,13,19,0,0.025,0.03,0.2,0.002,0.008,25.1,50.5,WNW,2.1
H01,2014,9,13,20,0,0.014,0.028,0.2,0.002,0.008,24.3,53.7,WNW,2.3
H01,2014,9,13,21,0,0.019,0.028,0.2,0.001,0.007,23.4,58.9,NW,1.6
H01,2014,9,13,22,0.001,0.024,0.028,0.2,0.001,0.007,22.9,60.4,NW,1.4
H01,2014,9,13,23,0.001,0.02,0.028,0.2,0,0.008,22.5,61.5,N,0.6
H01,2014,9,13,24,0.001,0.022,0.028,0.2,0.001,0.007,22.3,61.3,NNW,0.6
H01,2014,9,14,1,0.001,0.013,0.027,0.2,0,0.008,21.8,62.2,NE,1.4
H01,2014,9,14,2,0.001,0.01,0.027,0.2,0,0.008,21.7,62.6,NE,1.1
H01,2014,9,14,3,0.001,0.01,0.027,0.2,0,0.007,21.3,64.8,NE,1.6
H01,2014,9,14,4,0.001,0.03,0.024,0.2,0,0.009,20.8,66.7,NE,1
H01,2014,9,14,5,0.001,0.021,0.017,0.2,0.001,0.014,20.4,71,NE,0.5
H01,2014,9,14,6,0.001,0.022,0.011,0.3,0.003,0.018,19.8,71.6,E,0.5
H01,2014,9,14,7,0.001,0.014,0.014,0.3,0.003,0.012,21.3,66.3,ENE,0.9
H01,2014,9,14,8,0.001,0.027,0.022,0.3,0.003,0.009,23.9,51.4,NE,2.1
H01,2014,9,14,9,0.001,0.032,0.028,0.3,0.003,0.008,25.1,44,NE,1.6
H01,2014,9,14,10,0,0.016,0.034,0.2,0.001,0.004,26.4,42.3,NNE,1.3
H01,2014,9,14,11,0,0.025,0.038,0.2,0.002,0.004,27.8,37.8,NW,1.1
H01,2014,9,14,12,0,0.021,0.045,0.3,0.002,0.006,29,34.8,W,1.2
H01,2014,9,14,13,0.002,0.016,0.047,0.3,0.003,0.01,29.3,34.7,NW,1.7
H01,2014,9,14,14,0.003,0.024,0.043,0.5,0.004,0.014,30.6,32.7,WSW,1.2
H01,2014,9,14,15,0.003,0.02,0.044,0.4,0.005,0.015,30.3,33.4,WNW,2.2
H01,2014,9,14,16,0.003,0.027,0.034,1,0.009,0.027,30.5,30.5,WNW,1.8
H01,2014,9,14,17,0.003,0.029,0.05,0.6,0.003,0.012,28.8,36.5,S,1.8
H01,2014,9,14,18,0.003,0.032,0.059,0.5,0,0.01,26.8,46.4,S,2
H01,2014,9,14,19,0.003,0.026,0.046,0.3,0,0.011,25.4,57,SSE,1.9
H01,2014,9,14,20,0.002,0.04,0.047,0.3,0.001,0.013,24.4,69.5,S,1.7
H01,2014,9,14,21,0.001,0.043,0.054,0.3,0,0.008,23.7,73.1,S,0.9
H01,2014,9,14,22,0.001,0.042,0.052,0.3,0,0.008,23.3,76.1,S,0.9
H01,2014,9,14,23,0.001,0.041,0.046,0.3,0,0.009,23,78.4,SE,0.5
H01,2014,9,14,24,0.001,0.026,0.041,0.3,0,0.009,22.4,79.7,E,0.5
H01,2014,9,15,1,0.001,0.039,0.036,0.4,0,0.009,21.8,78.5,E,0.5
H01,2014,9,15,2,0.001,0.03,0.035,0.3,0,0.006,21.4,77.6,ENE,0.8
H01,2014,9,15,3,0,0.026,0.032,0.3,0,0.006,21.3,77.4,CALM,0.2
H01,2014,9,15,4,0,0.048,0.027,0.3,0,0.007,21.5,75.6,ESE,0.3
H01,2014,9,15,5,0,0.04,0.025,0.3,0,0.009,21.2,74.9,CALM,0.1
H01,2014,9,15,6,0,0.042,0.025,0.3,0,0.011,21.5,73.4,CALM,0.2
H01,2014,9,15,7,0,0.035,0.018,0.4,0.002,0.017,22.5,70.9,SE,0.7
H01,2014,9,15,8,0,0.04,0.015,0.4,0.007,0.022,23.8,66.4,ENE,0.5
H01,2014,9,15,9,0.001,0.04,0.026,0.4,0.005,0.016,24.7,56.2,ESE,0.6
H01,2014,9,15,10,0.006,0.058,0.018,0.5,0.023,0.038,26.7,55.8,W,0.8
H01,2014,9,15,11,0.015,0.058,0.016,1.2,0.036,0.058,27.2,56,NNW,1
H01,2014,9,15,12,0.011,0.042,0.035,1,0.018,0.033,28.5,49.1,WNW,0.7
H01,2014,9,15,13,0.007,0.067,0.042,0.8,0.012,0.035,29,47.6,SW,1.6
H01,2014,9,15,14,0.006,0.046,0.045,0.4,0.008,0.028,27.9,49.1,SW,0.9
H01,2014,9,15,15,0.003,0.022,0.053,0.3,0.002,0.012,28.8,39.6,S,2
H01,2014,9,15,16,0.003,0.026,0.036,0.3,0.006,0.021,28.1,41.5,SSW,1.7
H01,2014,9,15,17,0.003,0.037,0.05,0.3,0.001,0.014,27,51.6,S,1.8
H01,2014,9,15,18,0.002,0.035,0.049,0.3,0,0.014,25.9,59.2,S,1.7
H01,2014,9,15,19,0.001,0.045,0.05,0.3,0,0.011,25.1,63,S,1.6
H01,2014,9,15,20,0.001,0.042,0.052,0.3,0,0.012,24.8,67.7,S,1.4
H01,2014,9,15,21,0.001,0.035,0.047,0.3,0,0.013,24.6,69.6,SSE,0.6
H01,2014,9,15,22,0.001,0.036,0.037,0.3,0.001,0.019,24.5,71.9,SSE,0.9
H01,2014,9,15,23,0.001,0.045,0.035,0.3,0,0.018,23.9,75.3,E,0.5
H01,2014,9,15,24,0.001,0.03,0.029,0.4,0,0.017,23.2,67.9,E,0.8
H01,2014,9,16,1,0.001,0.036,0.03,0.3,0,0.01,22.7,72.2,ENE,0.3
H01,2014,9,16,2,0.001,0.028,0.03,0.3,0,0.009,22.8,68.3,E,0.4
H01,2014,9,16,3,0,0.026,0.028,0.3,0,0.008,22.4,68.5,CALM,0.1
H01,2014,9,16,4,0,0.036,0.02,0.3,0,0.015,22,72.4,CALM,0.2
H01,2014,9,16,5,0.001,0.032,0.004,0.4,0.013,0.031,22.6,73.6,CALM,0.1
H01,2014,9,16,6,0.001,0.042,0.001,0.4,0.024,0.037,22.4,71.5,WNW,1.4
H01,2014,9,16,7,0.001,0.029,0.004,0.5,0.048,0.035,23.4,68.8,N,0.3
H01,2014,9,16,8,0.001,0.042,0.008,0.5,0.053,0.036,25.4,53.8,NE,0.6
H01,2014,9,16,9,0.001,0.035,0.022,0.4,0.016,0.022,27.3,49.1,NW,1.2
H01,2014,9,16,10,0.002,0.028,0.025,0.4,0.028,0.033,27.6,44.9,NW,1
H01,2014,9,16,11,0.001,0.042,0.032,0.4,0.024,0.036,29.1,42.4,WNW,1.7
H01,2014,9,16,12,0.002,0.044,0.042,0.4,0.016,0.027,29.7,40.7,N,1
H01,2014,9,16,13,0.002,0.023,0.049,0.3,0.009,0.024,30.8,40.3,NNW,1.5
H01,2014,9,16,14,0.002,0.031,0.046,0.3,0.014,0.026,32,39.3,WNW,2.1
H01,2014,9,16,15,0.002,0.033,0.035,0.4,0.023,0.031,31.2,38.8,WNW,2.7
H01,2014,9,16,16,0.001,0.026,0.033,0.3,0.016,0.025,30.9,36.3,WNW,2.6
H01,2014,9,16,17,0.001,0.037,0.032,0.3,0.014,0.022,30,34.4,WNW,3.4
H01,2014,9,16,18,0.001,0.023,0.032,0.3,0.007,0.02,28.1,45,WNW,1.8
H01,2014,9,16,19,0.001,0.023,0.024,0.3,0.009,0.021,26.7,50.2,WNW,2.8
H01,2014,9,16,20,0.001,0.027,0.029,0.3,0.003,0.009,25.7,53.1,WNW,2.2
H01,2014,9,16,21,0.001,0.02,0.03,0.3,0.002,0.01,25,54.3,WNW,1.4
H01,2014,9,16,22,0.001,0.028,0.032,0.3,0.001,0.01,24.6,52.4,NNE,1.1
H01,2014,9,16,23,0.001,0.019,0.031,0.3,0.001,0.012,23.9,54.5,NNE,0.9
H01,2014,9,16,24,0.001,0.02,0.029,0.3,0.001,0.013,23.4,56.7,NNE,0.6
H01,2014,9,17,1,0.001,0.027,0.028,0.3,0.001,0.014,23,54.7,NNE,1.2
H01,2014,9,17,2,0.001,0.035,0.027,0.3,0.001,0.014,22.4,54.8,NE,0.4
H01,2014,9,17,3,0.001,0.024,0.025,0.3,0.001,0.017,22.1,54,NE,0.5
H01,2014,9,17,4,0.001,0.045,0.025,0.3,0.001,0.018,22.1,48.8,NE,1
H01,2014,9,17,5,0.001,0.026,0.018,0.4,0.005,0.027,21.6,46.7,NE,0.9
H01,2014,9,17,6,0.001,0.031,0.007,0.4,0.029,0.041,21.6,53.8,NE,1.2
H01,2014,9,17,7,0.001,0.033,0.007,0.4,0.016,0.033,21.5,56.3,NE,0.5
H01,2014,9,17,8,0.001,0.023,0.016,0.4,0.011,0.025,23.8,46.4,NE,1.5
H01,2014,9,17,9,0.001,0.016,0.025,0.3,0.009,0.02,24.2,38.2,NE,1.2
H01,2014,9,17,10,0.001,0.027,0.018,0.4,0.027,0.03,26.1,33.6,NW,0.7
H01,2014,9,17,11,0.001,0.034,0.022,0.3,0.034,0.034,26.5,30,WNW,2.1
H01,2014,9,17,12,0.001,0.028,0.026,0.3,0.023,0.029,26.4,30.8,WNW,1.6
H01,2014,9,17,13,0.002,0.028,0.03,0.3,0.016,0.024,27.2,28.4,NW,1.2
H01,2014,9,17,14,0.002,0.014,0.029,0.3,0.021,0.034,28.1,31.5,NNW,1.1
H01,2014,9,17,15,0.002,0.028,0.034,0.3,0.022,0.031,27.3,33.8,NW,0.8
H01,2014,9,17,16,0.002,0.035,0.039,0.3,0.015,0.027,27.6,36,NW,0.8
H01,2014,9,17,17,0.001,0.033,0.036,0.3,0.011,0.023,26.8,37.5,WNW,2.6
H01,2014,9,17,18,0.004,0.033,0.021,0.4,0.015,0.031,25.8,38.8,WNW,2.1
H01,2014,9,17,19,0.001,0.034,0.017,0.5,0.02,0.029,24.9,46.9,NW,1.1
H01,2014,9,17,20,0.002,0.03,0.022,0.4,0.006,0.024,24.6,52.1,NE,1
H01,2014,9,17,21,0.001,0.026,0.033,0.3,0.001,0.012,24.2,54.6,WNW,0.8
H01,2014,9,17,22,0.001,0.031,0.031,0.3,0.001,0.011,23.6,55.8,WNW,1.4
H01,2014,9,17,23,0.001,0.024,0.029,0.3,0.002,0.012,23.1,56.3,NW,0.6
H01,2014,9,17,24,0.001,0.031,0.03,0.2,0.002,0.009,22.8,57.3,NW,0.5
H01,2014,9,18,1,***,0.022,0.026,***,***,***,22.7,57.5,WNW,1.7
H01,2014,9,18,2,***,0.025,0.023,0.2,***,***,22.1,60.1,WNW,1.3
H01,2014,9,18,3,0.002,0.034,0.023,0.2,0.002,0.014,22,61.3,NNW,0.7
H01,2014,9,18,4,0.002,0.008,0.021,0.2,0.003,0.017,21.9,60.4,NE,1
H01,2014,9,18,5,0.002,0.022,0.019,0.2,0.005,0.017,21.4,59.8,NW,0.8
H01,2014,9,18,6,0.002,0.02,0.017,0.2,0.006,0.019,20.7,57.8,NE,1
H01,2014,9,18,7,0.002,0.018,0.014,0.3,0.014,0.023,21.2,52.6,NNE,1.3
H01,2014,9,18,8,0.002,0.015,0.018,0.3,0.023,0.022,23.9,39.1,NW,1.1
H01,2014,9,18,9,0.002,0.027,0.022,0.3,0.021,0.02,24.2,38.7,NNE,1.5
H01,2014,9,18,10,0.001,0.029,0.025,0.2,0.017,0.021,25.9,35.9,NW,1.9
H01,2014,9,18,11,0.001,0.018,0.029,0.2,0.016,0.019,26.7,33.2,WNW,2.4
H01,2014,9,18,12,0,0.01,0.031,0.2,0.015,0.022,27,33.5,NW,2.5
H01,2014,9,18,13,0.001,0.015,0.035,0.2,0.009,0.015,27,34.4,NNW,1.9
H01,2014,9,18,14,0,0.019,0.032,0.2,0.011,0.018,28.1,31.9,NW,2.4
H01,2014,9,18,15,0,0.025,0.033,0.2,0.013,0.017,26.9,27.8,WNW,3.9
H01,2014,9,18,16,0.001,0.022,0.033,0.2,0.009,0.016,26.4,26.7,WNW,2.3
H01,2014,9,18,17,0,0.017,0.033,0.2,0.006,0.013,25.5,22.3,WNW,4.1
H01,2014,9,18,18,0,0.033,0.031,0.3,0.008,0.013,24.2,26.5,NW,1.6
H01,2014,9,18,19,0,0.016,0.029,0.3,0.005,0.015,22.9,32.6,NE,2.1
H01,2014,9,18,20,0.001,0.017,0.028,0.3,0.003,0.012,22,38.1,WNW,1.8